Starlink 33744

operational
NORAD ID: 63471 Int'l Des: 2025-070 Owner: SPXS Country: US Constellation: starlink
LEOCIRCULAR

关于 Starlink 33744

正在加载描述...

实时位置

正在加载3D地球...

即将过境

高度历史

Altitude vs Time

uPlot chart will show altitude changes over time

两行轨道根数

1 63471U 25070M 25308.16668980 .00028632 00000-0 10470-2 0 9992
2 63471 43.0023 248.9155 0001286 273.3401 196.1354 15.27546251 5907
Epoch: Nov 4, 2025 • Age: 6 hours

当前状态

高度 486.6 km
速度 7.63 km/s
星下点 40.61°N, 163.35°E
发射日期 Apr 6, 2025
运行时间 0.5 years
类型 internet

技术详情

分类 Payload
质量 575.00 kg
干质量 530.00 kg
总质量 575.00 kg
长度 0.30 m
直径 4.10 m
跨度 29.00 m
形状 Box + pan
制造商 SPXS
平台类型 Starlink V2MO
阶段状态 In Orbit
所有者/国家 SPXS/US

大型星座

Loading constellations...